Location: Unspecified
(0.0000°N, 0.0000°E)
Time: 05:29:15
(UTC+00:00)

Transit 4A - Pass Details

Date: 03 October 2020
Orbit: 862 x 982 km, 66.8° (Epoch: 28 October)

Event Time Altitude Azimuth Distance (km) Brightness Sun altitude
Rises 08:51:49 0° 297° (WNW) 3,626 10.6 45.6°
Maximum altitude 08:58:08 10° 250° (WSW) 2,645 10.0 47.1°
Drops below altitude 10° 08:58:16 10° 249° (WSW) 2,645 10.0 47.2°
Sets 09:04:24 0° 202° (SSW) 3,547 10.8 48.7°
